{"data":{"norad_id":67645,"epoch":"2026-05-25T04:02:47.019264Z","epoch_age_seconds":60357,"freshness":"FRESH","line1":"1 67645U 26020AE  26145.16859976  .00026240  00000+0  95920-3 0  9998","line2":"2 67645  43.0042  67.5507 0001313 256.6555 103.4150 15.27596563 17815","mean_motion":15.27596563,"eccentricity":0.0001313,"inclination_deg":43.0042,"raan_deg":67.5507,"arg_perigee_deg":256.6555,"mean_anomaly_deg":103.415,"bstar":0.0009592,"rev_number":1781,"period_min":94.265726624314,"perigee_km":482.09863368469,"apogee_km":483.90036812983,"semimajor_km":6861.1365009073,"source":"CELESTRAK","updated_at":"2026-05-25T13:38:21.655790Z"}}